When you browse on this site, cookies collect data to enhance your experience and personalize the content and advertising you see.
Visit our Privacy Policy to learn more. By continuing to use the site, you agree to this use of cookies and data.
  • Em Portugal
  • Lista de países
  • Para 7 dias
  • Temperatura da água
  • Mapa do tempo
  • Widgets de tempo
  • user-avatar
    Iniciar Sessão

    Previsão horária em Santiago del Estero

    Hoje, 5 Junho, Sexta-feira

    Tempo Temperatura Precipitação Vento Pressão Humidade
    00:00 +10°C° 0 mm 3 m/s 748 mmHg 89%
    01:00 +10°C° 0 mm 3 m/s 748 mmHg 90%
    02:00 +10°C° 0 mm 3 m/s 747 mmHg 90%
    03:00 +9°C° 0 mm 3 m/s 747 mmHg 90%
    04:00 +9°C° 0 mm 3 m/s 747 mmHg 90%
    05:00 +9°C° 0 mm 2 m/s 746 mmHg 90%
    06:00 +9°C° 0 mm 2 m/s 747 mmHg 88%
    07:00 +10°C° 0 mm 2 m/s 747 mmHg 86%
    08:00 +10°C° 0 mm 2 m/s 747 mmHg 83%
    09:00 +13°C° 0 mm 2 m/s 747 mmHg 74%
    10:00 +15°C° 0 mm 2 m/s 747 mmHg 65%
    11:00 +17°C° 0 mm 2 m/s 747 mmHg 56%
    12:00 +18°C° 0 mm 2 m/s 746 mmHg 51%
    13:00 +19°C° 0 mm 2 m/s 745 mmHg 45%
    14:00 +20°C° 0 mm 2 m/s 744 mmHg 40%
    15:00 +20°C° 0 mm 1 m/s 744 mmHg 43%
    16:00 +20°C° 0 mm 1 m/s 744 mmHg 45%
    17:00 +19°C° 0 mm 1 m/s 744 mmHg 48%
    18:00 +16°C° 0 mm 1 m/s 744 mmHg 53%
    19:00 +15°C° 0 mm 1 m/s 744 mmHg 57%
    20:00 +13°C° 0 mm 2 m/s 745 mmHg 62%
    21:00 +13°C° 0 mm 2 m/s 745 mmHg 62%
    22:00 +13°C° 0 mm 2 m/s 745 mmHg 63%
    23:00 +12°C° 0 mm 2 m/s 745 mmHg 64%

    Amanhã, 6 Junho, Sábado

    Tempo Temperatura Precipitação Vento Pressão Humidade
    00:00 +12°C° 0 mm 2 m/s 745 mmHg 64%
    01:00 +12°C° 0 mm 2 m/s 744 mmHg 65%
    02:00 +10°C° 0 mm 2 m/s 744 mmHg 66%
    03:00 +10°C° 0 mm 2 m/s 744 mmHg 67%
    04:00 +10°C° 0 mm 2 m/s 744 mmHg 68%
    05:00 +10°C° 0 mm 2 m/s 743 mmHg 70%
    06:00 +10°C° 0 mm 2 m/s 743 mmHg 69%
    07:00 +12°C° 0 mm 2 m/s 744 mmHg 69%
    08:00 +12°C° 0 mm 2 m/s 744 mmHg 68%
    09:00 +14°C° 0 mm 2 m/s 744 mmHg 61%
    10:00 +17°C° 0 mm 2 m/s 743 mmHg 54%
    11:00 +19°C° 0 mm 2 m/s 743 mmHg 46%
    12:00 +21°C° 0 mm 3 m/s 742 mmHg 42%
    13:00 +22°C° 0 mm 3 m/s 741 mmHg 37%
    14:00 +25°C° 0 mm 4 m/s 741 mmHg 33%
    15:00 +24°C° 0 mm 3 m/s 740 mmHg 35%
    16:00 +22°C° 0 mm 3 m/s 740 mmHg 37%
    17:00 +23°C° 0 mm 2 m/s 740 mmHg 39%
    18:00 +20°C° 0 mm 2 m/s 740 mmHg 42%
    19:00 +18°C° 0 mm 2 m/s 740 mmHg 44%
    20:00 +17°C° 0 mm 2 m/s 741 mmHg 47%
    21:00 +16°C° 0 mm 3 m/s 741 mmHg 48%
    22:00 +16°C° 0 mm 3 m/s 741 mmHg 49%
    23:00 +14°C° 0 mm 3 m/s 741 mmHg 49%

    Depois de amanhã, 7 Junho, Domingo

    Tempo Temperatura Precipitação Vento Pressão Humidade
    00:00 +14°C° 0 mm 3 m/s 741 mmHg 52%
    01:00 +13°C° 0 mm 3 m/s 741 mmHg 54%
    02:00 +13°C° 0 mm 3 m/s 740 mmHg 57%
    03:00 +12°C° 0 mm 3 m/s 741 mmHg 59%
    04:00 +12°C° 0 mm 3 m/s 741 mmHg 62%
    05:00 +11°C° 0 mm 3 m/s 741 mmHg 65%
    06:00 +11°C° 0 mm 3 m/s 741 mmHg 65%
    07:00 +12°C° 0 mm 3 m/s 742 mmHg 65%
    08:00 +12°C° 0 mm 3 m/s 742 mmHg 66%
    09:00 +14°C° 0 mm 3 m/s 742 mmHg 62%
    10:00 +18°C° 0 mm 3 m/s 742 mmHg 58%
    11:00 +20°C° 0 mm 4 m/s 742 mmHg 53%
    12:00 +22°C° 0 mm 4 m/s 742 mmHg 51%
    13:00 +23°C° 0 mm 4 m/s 741 mmHg 48%
    14:00 +25°C° 0 mm 4 m/s 740 mmHg 45%
    15:00 +24°C° 0 mm 3 m/s 740 mmHg 48%
    16:00 +24°C° 0 mm 2 m/s 740 mmHg 51%
    17:00 +23°C° 0 mm 2 m/s 741 mmHg 54%
    18:00 +21°C° 0 mm 2 m/s 741 mmHg 57%
    19:00 +21°C° 0 mm 2 m/s 741 mmHg 59%
    20:00 +20°C° 0 mm 3 m/s 741 mmHg 61%
    21:00 +20°C° 0 mm 3 m/s 741 mmHg 64%
    22:00 +19°C° 0 mm 2 m/s 742 mmHg 67%
    23:00 +18°C° 0 mm 2 m/s 742 mmHg 70%

    8 Junho, Segunda-feira

    Tempo Temperatura Precipitação Vento Pressão Humidade
    00:00 +17°C° 0 mm 2 m/s 742 mmHg 77%
    01:00 +16°C° 0 mm 1 m/s 742 mmHg 83%
    02:00 +15°C° 0 mm 1 m/s 741 mmHg 89%
    03:00 +14°C° 0 mm 1 m/s 742 mmHg 90%
    04:00 +14°C° 0 mm 1 m/s 742 mmHg 90%
    05:00 +14°C° 0 mm 1 m/s 742 mmHg 91%
    06:00 +15°C° 0 mm 1 m/s 742 mmHg 89%
    07:00 +15°C° 0 mm 1 m/s 743 mmHg 87%
    08:00 +15°C° 0 mm 0 m/s 743 mmHg 85%
    09:00 +19°C° 0 mm 1 m/s 743 mmHg 77%
    10:00 +21°C° 0 mm 1 m/s 743 mmHg 68%
    11:00 +23°C° 0 mm 1 m/s 743 mmHg 59%
    12:00 +24°C° 0 mm 1 m/s 742 mmHg 56%
    13:00 +25°C° 0 mm 1 m/s 741 mmHg 52%
    14:00 +26°C° 0 mm 1 m/s 740 mmHg 49%
    15:00 +25°C° 0 mm 1 m/s 740 mmHg 52%
    16:00 +25°C° 0 mm 1 m/s 740 mmHg 55%
    17:00 +24°C° 0 mm 2 m/s 740 mmHg 57%
    18:00 +23°C° 0 mm 2 m/s 741 mmHg 63%
    19:00 +20°C° 0 mm 2 m/s 741 mmHg 68%
    20:00 +19°C° 0 mm 2 m/s 742 mmHg 73%
    21:00 +19°C° 0 mm 2 m/s 742 mmHg 74%
    22:00 +20°C° 0 mm 1 m/s 742 mmHg 76%
    23:00 +20°C° 0 mm 1 m/s 742 mmHg 77%

    9 Junho, Terça-feira

    Tempo Temperatura Precipitação Vento Pressão Humidade
    00:00 +18°C° 0 mm 2 m/s 742 mmHg 78%
    01:00 +18°C° 0 mm 2 m/s 742 mmHg 79%
    02:00 +18°C° 0 mm 2 m/s 742 mmHg 81%
    03:00 +18°C° 0 mm 2 m/s 742 mmHg 82%
    04:00 +17°C° 0 mm 2 m/s 742 mmHg 83%
    05:00 +17°C° 0 mm 3 m/s 742 mmHg 85%
    06:00 +17°C° 0 mm 3 m/s 742 mmHg 85%
    07:00 +17°C° 0 mm 3 m/s 743 mmHg 85%
    08:00 +17°C° 0 mm 4 m/s 743 mmHg 85%
    09:00 +18°C° 0 mm 4 m/s 744 mmHg 81%
    10:00 +19°C° 0 mm 4 m/s 744 mmHg 76%
    11:00 +19°C° 0 mm 4 m/s 744 mmHg 71%
    12:00 +20°C° 0 mm 4 m/s 743 mmHg 67%
    13:00 +21°C° 0 mm 5 m/s 743 mmHg 63%
    14:00 +21°C° 0 mm 5 m/s 742 mmHg 59%
    15:00 +20°C° 0 mm 5 m/s 742 mmHg 62%
    16:00 +19°C° 0 mm 4 m/s 742 mmHg 65%
    17:00 +19°C° 0 mm 4 m/s 742 mmHg 69%
    18:00 +18°C° 0 mm 3 m/s 742 mmHg 72%
    19:00 +17°C° 0 mm 2 m/s 742 mmHg 76%
    20:00 +16°C° 0 mm 2 m/s 742 mmHg 79%
    21:00 +15°C° 0 mm 2 m/s 742 mmHg 82%
    22:00 +15°C° 0 mm 1 m/s 742 mmHg 84%
    23:00 +14°C° 0 mm 1 m/s 742 mmHg 87%

    10 Junho, Quarta-feira

    Tempo Temperatura Precipitação Vento Pressão Humidade
    00:00 +13°C° 0 mm 1 m/s 742 mmHg 88%
    01:00 +13°C° 0 mm 1 m/s 741 mmHg 90%
    02:00 +11°C° 0 mm 0 m/s 741 mmHg 92%
    03:00 +11°C° 0 mm 0 m/s 740 mmHg 93%
    04:00 +11°C° 0 mm 0 m/s 740 mmHg 93%
    05:00 +11°C° 0 mm 1 m/s 740 mmHg 93%
    06:00 +11°C° 0 mm 0 m/s 740 mmHg 92%
    07:00 +12°C° 0 mm 0 m/s 740 mmHg 91%
    08:00 +13°C° 0 mm 0 m/s 741 mmHg 90%
    09:00 +15°C° 0 mm 0 m/s 741 mmHg 81%
    10:00 +19°C° 0 mm 1 m/s 741 mmHg 73%
    11:00 +20°C° 0 mm 1 m/s 741 mmHg 65%
    12:00 +21°C° 0 mm 1 m/s 741 mmHg 60%
    13:00 +22°C° 0 mm 1 m/s 740 mmHg 56%
    14:00 +23°C° 0 mm 1 m/s 739 mmHg 52%
    15:00 +23°C° 0 mm 2 m/s 740 mmHg 54%
    16:00 +21°C° 0 mm 2 m/s 740 mmHg 56%
    17:00 +21°C° 0 mm 2 m/s 740 mmHg 59%
    18:00 +20°C° 0 mm 2 m/s 740 mmHg 65%
    19:00 +18°C° 0 mm 2 m/s 741 mmHg 71%
    20:00 +17°C° 0 mm 2 m/s 742 mmHg 77%
    21:00 +16°C° 0 mm 2 m/s 742 mmHg 79%
    22:00 +16°C° 0 mm 1 m/s 742 mmHg 82%
    23:00 +16°C° 0 mm 1 m/s 742 mmHg 85%
    Mostrar mais